Wind_Speed
24 24 20 18 18 17 16 16 15 15 15 14 14 14 15 15 16 17 18 19 20 21 22 22 23 23 24 24 24 24 24 23 23 22 22 22 22 23 25 26 27 29 31 32 32 32 30 28 29 31 32 32 31 32 32 31 31 31 31 31 30 29 30
24 24 21 19 18 17 16 16 15 15 14 14 14 14 14 15 16 18 19 20 21 21 22 22 23 23 24 24 24 24 24 24 24 23 23 23 23 23 25 26 28 29 31 32 33 33 32 30 28 29 32 32 31 32 33 32 31 30 30 30 29 28 28
25 24 21 18 18 17 16 15 15 14 14 14 14 14 14 15 17 18 20 20 21 21 21 22 23 23 24 24 24 24 24 24 24 24 24 24 24 24 25 26 27 29 31 32 33 33 33 32 30 30 31 32 31 32 33 33 31 29 29 29 28 27 27
26 24 20 18 17 16 15 15 14 14 14 13 13 14 14 16 17 19 20 20 21 22 22 22 23 23 24 24 24 24 25 25 25 25 25 24 24 25 25 26 27 29 31 33 33 34 34 33 32 31 32 31 31 33 34 33 30 29 29 28 28 27 27
25 23 18 17 17 16 16 15 15 14 13 13 13 14 15 17 19 20 20 21 22 22 23 23 23 23 24 24 24 24 25 25 25 25 25 25 25 25 26 26 27 29 31 34 35 35 35 35 34 33 32 30 31 33 34 32 29 29 28 27 27 27 27
25 21 16 15 16 16 16 15 15 14 13 13 14 15 17 18 19 20 21 21 22 23 23 22 22 22 23 23 24 24 25 26 26 26 26 26 26 26 27 27 27 28 31 34 35 35 35 35 35 34 31 31 32 33 33 31 29 28 27 27 27 26 26
24 20 15 15 17 17 16 15 15 15 14 14 15 16 17 19 19 20 21 21 22 22 22 21 21 22 22 23 23 24 25 26 26 26 26 26 26 27 28 28 27 28 30 32 34 35 34 33 33 32 30 31 33 33 32 30 28 26 26 26 25 24 24
23 18 14 15 16 16 16 16 16 15 15 15 16 17 18 19 19 20 20 21 21 21 21 21 21 22 23 23 24 25 25 26 27 27 26 26 27 27 29 29 28 28 30 31 33 33 33 33 32 31 31 32 33 33 32 30 27 25 24 23 21 21 22
20 16 14 15 16 17 17 17 17 16 16 16 16 17 18 19 19 19 19 20 20 21 21 22 23 23 24 25 25 26 26 26 27 28 27 27 27 28 29 29 29 29 30 31 32 33 33 32 32 32 33 33 33 32 31 30 28 25 23 21 18 18 20
18 18 17 16 17 18 18 18 18 17 17 16 17 17 17 18 18 19 19 20 21 22 23 23 24 25 25 26 26 26 26 27 28 28 28 28 28 28 29 29 29 30 31 32 32 33 32 32 31 31 32 32 32 32 31 30 27 24 22 22 19 18 19
19 21 20 19 19 19 19 19 18 18 18 17 17 17 17 18 18 19 20 21 22 23 24 25 25 25 26 26 26 26 27 27 28 29 29 29 28 28 29 29 29 30 31 32 33 33 32 32 31 30 31 31 31 31 31 30 27 24 23 22 21 19 19
20 21 22 21 20 20 20 19 19 19 18 17 17 17 17 18 19 20 22 23 24 24 25 26 26 26 26 26 26 26 27 27 28 29 29 29 29 29 29 29 30 30 31 33 33 33 33 32 31 30 30 30 30 30 30 29 26 25 23 22 22 22 20
20 21 22 21 20 20 20 20 20 20 19 18 17 17 18 19 20 21 23 24 24 25 25 25 25 25 25 25 26 27 27 28 29 29 29 29 29 29 29 29 30 30 31 32 33 33 32 32 31 30 30 30 30 29 29 28 26 25 25 23 23 22 21
20 21 21 20 20 20 20 20 21 21 20 18 17 17 18 19 21 22 23 24 25 25 25 24 24 24 24 25 26 27 28 29 29 29 29 29 29 29 30 30 31 31 32 32 33 33 32 32 31 31 30 30 30 29 28 28 26 25 25 24 22 21 21
20 21 21 20 21 21 20 21 21 21 20 18 17 18 18 20 22 23 24 24 24 24 24 24 24 25 26 26 27 28 28 28 29 29 29 28 29 29 30 31 31 32 32 33 33 33 33 32 31 31 30 29 29 29 28 28 27 25 24 24 22 20 20
19 20 21 21 21 21 20 20 21 20 19 18 18 18 19 21 23 24 25 24 24 24 24 24 25 26 27 28 28 28 28 28 28 29 29 29 29 30 30 31 32 32 33 33 34 34 33 32 31 30 30 30 28 28 28 27 27 26 25 24 23 21 22
18 20 21 21 21 20 19 19 19 19 18 18 18 19 20 22 23 24 25 25 24 24 24 26 26 27 28 28 28 28 28 28 29 29 29 30 30 31 31 31 32 33 33 34 34 34 33 33 31 30 30 29 28 27 27 26 26 25 25 24 23 23 24
18 20 21 21 20 19 18 18 18 18 18 18 19 20 21 22 24 25 25 25 25 25 26 27 27 28 28 28 28 29 29 30 30 30 30 30 31 32 32 32 32 33 34 34 34 33 33 32 32 30 29 29 28 27 26 26 25 25 25 24 23 23 24
19 21 21 20 19 18 17 17 17 17 18 19 20 21 22 23 24 25 25 25 25 26 27 28 28 29 29 29 29 29 30 30 31 31 31 31 31 32 32 32 33 33 34 34 34 33 33 32 31 30 29 28 28 27 26 26 25 25 25 25 25 23 24
21 22 22 21 19 18 17 17 17 18 19 20 20 21 23 24 25 25 25 26 26 27 28 29 29 30 29 30 30 30 31 31 31 32 32 32 32 32 32 33 33 34 34 33 33 33 32 32 31 30 28 27 27 27 26 26 25 25 25 25 26 25 23
22 23 22 21 19 18 18 18 18 19 20 20 21 23 24 24 25 25 25 26 27 28 29 29 30 30 30 30 30 31 31 32 32 32 32 32 32 32 32 33 33 33 33 33 33 32 32 32 31 30 29 27 26 26 26 26 25 25 25 25 25 25 24
23 24 23 21 20 19 19 19 19 20 20 22 23 24 25 25 25 25 26 27 28 29 29 30 30 30 30 30 30 31 31 31 32 32 32 32 31 32 32 32 32 32 32 32 32 31 31 31 31 30 29 28 26 26 26 26 25 25 25 25 25 25 24
23 23 22 22 21 20 20 20 20 21 21 23 24 24 25 25 25 26 27 28 29 29 30 30 30 30 30 30 31 31 31 31 31 31 31 31 31 31 31 31 31 31 31 31 31 31 30 30 30 29 29 28 27 25 25 25 25 25 25 25 25 25 24
24 23 23 22 22 22 21 21 21 22 23 24 25 25 26 26 27 28 28 29 29 29 30 30 30 30 30 31 31 31 31 31 30 30 30 30 30 30 30 30 30 30 30 31 30 30 30 30 29 29 29 28 27 26 25 24 25 25 25 25 25 25 25
24 24 24 24 24 23 23 22 23 23 25 25 26 26 26 27 28 28 29 29 29 30 30 30 29 30 30 31 31 31 30 30 30 29 29 29 29 30 30 30 30 30 30 30 30 30 30 30 30 30 29 29 29 28 26 25 25 25 25 25 24 25 25
21 20 21 22 23 23 23 23 23 24 25 26 26 26 27 27 28 29 29 29 29 29 29 29 29 29 30 30 30 30 30 30 30 30 29 29 29 29 29 29 30 30 30 30 30 30 30 30 30 30 30 30 30 29 28 27 26 25 25 25 25 24 24
15 14 16 18 20 22 23 24 25 25 26 26 26 26 27 28 29 29 29 29 29 29 29 28 29 29 29 29 29 29 29 30 30 30 30 29 29 28 28 29 29 29 29 30 30 30 30 30 30 30 30 30 30 30 29 28 27 26 25 26 26 25 24
17 19 19 19 21 23 25 26 26 26 26 26 26 27 28 28 29 29 29 29 29 28 28 28 28 28 28 28 28 28 29 29 30 30 29 29 28 28 28 28 28 28 28 28 29 29 29 29 29 30 30 29 29 29 29 28 27 26 25 25 26 26 25
22 23 21 21 22 25 26 27 26 26 26 26 27 28 28 28 29 29 29 28 28 28 28 28 28 28 27 27 28 28 28 29 29 29 29 28 28 28 27 27 27 26 26 27 27 27 28 28 28 29 29 29 29 28 28 28 27 26 25 24 25 26 25
21 21 21 22 23 24 26 26 26 26 27 27 27 28 28 28 28 28 28 28 29 28 28 28 27 27 27 27 28 28 28 28 28 28 28 28 27 27 26 26 26 26 26 26 27 28 28 28 29 29 28 28 28 28 27 27 27 26 25 24 24 24 25
18 19 20 22 22 24 24 25 26 26 27 28 28 28 28 28 28 28 29 28 28 28 27 27 26 27 27 27 27 27 27 27 27 26 26 26 26 26 26 26 26 27 28 28 29 29 29 29 29 29 29 28 28 28 27 27 26 26 25 25 24 24 24
17 18 20 21 21 22 23 25 26 27 28 28 28 28 28 28 28 28 28 28 28 27 27 26 26 26 26 26 26 26 26 26 25 25 25 25 26 26 27 27 28 29 30 30 30 29 29 29 28 28 28 28 28 28 27 27 27 26 26 25 25 24 24
17 18 19 20 21 22 24 25 27 28 28 28 27 27 28 28 28 28 27 27 27 27 26 26 26 26 26 26 26 25 25 25 25 25 25 26 26 27 28 28 29 29 29 29 29 28 28 28 28 28 28 28 28 28 28 28 28 27 27 26 26 25 24
20 20 20 21 22 23 25 26 27 28 28 27 27 28 28 28 27 27 26 26 26 26 26 26 25 26 25 25 25 25 25 25 25 26 26 26 27 27 27 28 28 28 28 27 27 28 28 28 28 29 29 29 30 30 30 30 29 29 29 28 28 27 26
23 22 22 24 25 26 27 28 29 29 28 28 28 27 27 27 27 26 26 26 26 26 26 25 25 25 25 25 25 25 25 25 25 26 26 26 26 26 26 27 27 27 27 28 28 29 30 31 31 31 32 32 32 32 32 31 31 31 30 29 29 28 27
24 24 25 27 28 28 29 29 29 29 28 28 27 27 27 27 26 26 26 26 26 25 25 25 25 25 25 25 25 24 24 24 24 25 25 25 25 26 26 27 27 28 29 31 32 32 33 33 33 33 33 32 32 32 31 31 30 30 29 29 28 28 27
25 25 26 26 26 26 26 27 27 28 28 27 26 26 26 26 26 26 26 26 25 25 24 25 25 24 24 24 23 23 23 23 24 24 25 25 26 27 28 29 30 31 32 33 34 34 34 33 33 32 32 31 31 30 30 29 29 28 27 27 26 26 26
Wind_Direction
234 235 239 239 236 235 236 237 240 244 248 253 259 265 272 278 283 287 291 294 296 297 299 299 301 303 304 306 307 308 308 308 307 307 306 306 307 308 310 312 315 317 317 318 317 317 318 321 322 318 315 312 310 311 311 306 298 292 287 282 278 275 270
240 237 234 233 235 234 234 236 239 243 249 255 262 268 274 280 285 289 292 294 296 297 298 299 301 303 303 305 306 306 307 306 306 306 305 306 307 307 309 311 313 314 315 315 316 316 318 320 321 319 315 311 310 311 308 304 299 294 289 284 279 275 268
239 231 227 227 229 230 231 235 238 244 251 256 264 270 276 282 286 290 292 294 295 296 297 299 300 301 302 302 303 303 304 304 304 304 303 304 305 306 307 309 310 311 311 312 314 317 319 320 322 321 317 312 311 310 306 304 302 297 292 287 280 274 267
234 219 217 220 222 226 228 232 238 244 250 257 266 273 279 284 287 289 291 293 295 297 298 300 300 301 301 302 302 302 302 302 302 302 302 302 302 303 304 305 307 308 309 311 315 320 322 323 325 324 320 315 314 312 308 304 304 301 295 288 280 272 265
222 205 209 216 215 220 223 229 237 242 248 256 265 274 279 282 285 288 291 293 296 298 299 300 300 300 301 301 301 300 300 300 300 300 300 301 301 301 301 303 305 308 310 313 318 322 324 325 327 327 323 319 317 315 310 307 306 303 296 288 280 272 265
208 198 209 214 212 217 222 229 236 240 249 257 265 273 278 282 286 288 292 295 297 299 300 300 300 300 300 300 299 299 298 298 298 298 298 299 300 300 300 302 305 308 311 315 319 322 324 325 326 328 327 325 322 318 313 309 307 304 299 291 283 275 268
203 196 209 215 215 220 224 230 236 242 251 259 267 274 278 282 285 289 293 296 298 300 301 301 302 301 301 300 299 298 298 297 297 296 296 297 298 299 300 302 305 309 312 314 317 320 323 326 327 329 330 329 327 324 317 311 307 304 300 294 286 277 269
200 197 215 219 218 223 228 233 239 245 254 262 269 273 278 281 286 290 294 297 299 300 302 303 303 303 302 301 300 299 298 297 296 295 295 295 297 298 299 302 306 310 311 313 315 318 323 326 328 328 327 328 329 328 322 315 309 306 302 296 289 280 270
207 220 236 223 221 228 230 235 242 249 256 263 268 272 277 281 286 290 293 296 298 300 302 303 303 303 302 301 300 299 298 296 295 295 295 295 296 297 299 303 307 309 310 312 314 317 321 325 327 326 325 327 329 329 327 321 312 307 305 300 293 285 277
236 250 248 230 228 232 233 239 246 252 258 262 266 270 275 280 285 289 292 295 297 300 302 303 304 304 303 302 301 299 298 296 295 295 295 294 295 297 299 303 306 308 309 311 313 316 320 324 326 327 327 327 328 328 328 327 318 306 302 301 297 289 282
249 251 245 236 234 234 238 244 249 256 260 262 264 268 274 280 285 289 292 295 298 301 303 304 305 305 304 303 301 300 299 297 296 296 295 294 295 297 299 302 305 306 308 309 311 314 318 322 325 326 326 326 328 328 329 331 326 310 300 299 298 292 281
245 243 240 237 237 239 243 248 254 259 261 261 264 268 274 280 286 290 294 297 300 303 304 305 305 305 305 304 303 302 301 299 298 297 296 295 295 297 298 301 303 305 306 308 310 313 316 320 323 325 325 324 327 328 329 332 330 317 306 301 298 292 282
241 238 238 238 240 244 248 254 259 261 261 262 265 269 277 282 288 293 296 300 303 305 305 305 306 306 305 305 305 304 303 301 299 297 296 295 295 296 297 299 302 303 305 306 308 311 314 318 321 323 324 324 325 327 328 329 330 323 313 308 301 293 286
236 235 237 239 244 248 253 258 262 262 262 264 267 272 279 285 290 294 298 301 303 304 305 306 307 307 307 306 306 306 304 302 300 298 296 295 295 296 297 299 301 302 303 305 307 310 313 316 319 321 323 324 324 325 326 327 328 325 316 312 308 299 290
232 232 235 238 244 249 255 260 262 263 263 265 270 276 283 289 293 296 298 300 301 303 306 307 308 306 306 306 306 306 304 302 301 299 298 297 296 296 297 299 301 302 303 304 305 308 312 315 317 320 322 323 323 324 325 325 326 325 319 311 310 308 298
229 230 233 237 242 247 253 259 262 263 264 268 275 282 288 293 295 296 297 298 300 302 305 307 306 305 305 306 306 305 304 302 301 300 299 298 297 297 298 299 300 301 302 303 304 307 310 314 317 318 320 322 323 323 323 324 324 325 322 312 310 316 310
229 233 236 239 243 246 252 258 260 262 266 272 280 287 291 294 295 295 296 298 300 301 303 305 305 305 306 306 306 304 303 302 300 299 299 298 298 298 298 299 300 301 301 302 303 305 309 313 316 318 319 320 322 323 322 323 322 323 321 314 309 311 310
232 236 239 242 244 247 252 255 258 263 269 276 283 288 292 293 294 295 296 298 299 301 303 305 306 306 306 306 305 304 302 301 300 299 299 298 298 298 299 299 300 301 301 302 303 304 308 312 316 318 319 320 321 322 321 321 321 321 320 316 309 300 299
237 238 239 242 244 248 250 253 258 264 272 279 285 289 292 293 294 295 296 297 299 301 304 306 306 306 306 306 304 303 302 301 301 300 299 299 298 299 299 300 300 300 300 301 302 304 306 311 315 318 319 320 320 320 321 320 320 321 319 318 314 304 299
238 238 239 241 244 246 248 253 260 268 275 281 286 290 292 293 294 294 296 297 300 303 305 306 306 305 306 305 304 303 303 302 301 301 300 300 299 300 300 300 300 300 300 300 301 303 306 309 313 317 319 320 320 320 321 321 320 320 319 318 318 314 308
241 242 241 242 242 244 249 257 265 272 278 283 288 292 293 293 293 293 295 297 300 303 304 304 305 305 305 304 303 303 302 302 302 301 300 300 300 300 300 300 300 300 300 300 301 303 306 309 312 316 319 321 321 320 320 320 320 319 318 317 318 318 315
246 245 243 242 243 247 253 262 269 275 281 285 289 291 291 290 291 292 294 296 298 300 301 303 304 304 304 303 302 302 301 301 301 301 301 301 300 300 300 300 300 299 299 300 302 304 307 310 312 314 318 320 322 321 319 319 319 318 317 317 317 318 317
249 247 245 245 248 253 260 267 272 276 279 282 285 286 286 286 287 289 292 294 297 299 300 302 303 303 302 302 302 302 301 301 301 301 301 301 301 301 301 300 300 299 299 300 302 304 307 309 311 313 316 318 320 321 320 319 319 318 318 318 317 318 318
247 249 250 252 256 261 266 269 272 274 277 280 282 281 281 282 284 288 291 293 296 298 300 301 302 302 302 303 303 303 302 302 301 302 302 301 301 301 301 301 300 300 300 301 302 304 306 308 310 311 314 316 318 320 320 319 319 318 318 318 317 318 319
247 251 254 257 261 264 268 271 273 275 276 277 277 277 278 281 285 288 291 293 295 297 299 300 301 302 303 303 303 303 302 303 303 303 302 302 302 302 302 302 302 301 302 302 303 305 306 308 309 311 313 314 316 318 319 319 318 316 317 318 316 316 317
251 255 257 260 264 266 270 271 271 271 271 272 273 275 278 282 285 288 289 292 294 296 298 300 300 301 302 301 302 302 302 303 303 303 304 303 303 304 304 304 304 304 304 304 305 306 307 307 309 310 312 313 314 316 317 316 316 314 313 314 315 315 315
248 262 267 269 269 268 267 266 265 266 267 270 273 275 279 282 284 286 288 291 294 295 296 298 299 299 299 300 300 301 302 302 303 303 304 305 305 305 306 306 306 306 306 306 307 307 308 309 310 310 312 313 313 314 314 314 313 311 310 309 311 312 313
257 278 279 273 266 262 262 263 263 265 267 269 272 275 278 281 283 285 288 290 292 293 294 296 297 297 298 299 300 301 301 302 303 303 304 305 306 307 307 308 308 308 308 309 309 310 311 312 312 313 313 314 315 315 315 314 313 312 310 308 307 309 310
271 279 276 269 263 260 261 262 263 265 266 269 272 275 278 280 283 285 288 289 290 292 294 295 296 297 298 299 299 300 301 301 302 302 303 305 306 308 309 310 310 310 310 311 311 312 313 314 314 314 315 315 316 316 316 315 315 314 313 310 308 307 308
275 275 271 266 263 261 262 263 263 265 266 269 272 275 278 280 283 286 287 289 290 292 294 295 296 297 298 299 300 300 300 300 301 301 303 304 306 308 309 310 310 310 310 311 311 312 313 313 313 313 314 314 314 315 314 314 314 314 313 312 309 307 307
276 273 270 268 266 265 265 264 264 265 266 269 272 275 278 281 284 286 287 288 290 292 294 295 296 297 298 299 299 299 299 299 300 301 303 304 306 307 308 308 308 308 309 310 311 311 312 312 312 312 312 312 312 312 312 312 311 311 311 310 309 307 306
280 278 276 274 271 269 266 264 264 264 266 270 273 277 279 281 283 284 286 288 290 292 294 295 296 297 298 298 298 298 298 299 300 302 303 304 305 306 306 306 307 308 309 310 311 312 312 313 313 313 312 312 312 312 311 310 310 309 309 308 308 307 305
284 283 282 279 275 270 266 264 264 265 268 273 276 279 280 280 282 283 286 288 290 292 293 294 295 296 296 297 297 298 298 299 301 302 303 304 305 305 305 306 307 309 310 311 312 313 314 314 314 314 313 312 312 311 311 310 310 308 308 308 307 306 306
285 283 281 278 274 269 267 266 267 269 273 276 278 278 278 279 281 283 285 287 289 290 291 292 294 294 295 296 297 297 298 300 301 302 303 304 305 306 307 308 309 310 311 312 313 313 313 314 313 313 312 312 311 311 310 309 309 309 308 307 307 306 305
281 278 277 275 272 270 270 270 272 273 274 275 275 275 276 279 281 283 285 286 288 289 291 292 293 294 294 295 297 298 299 301 302 303 305 306 307 308 309 310 310 311 311 312 312 312 312 312 312 311 311 310 310 310 309 308 308 307 306 305 305 304 304
277 275 274 273 272 272 271 272 272 272 271 271 272 274 276 279 282 284 285 287 288 289 291 292 293 294 295 296 298 300 302 303 304 305 307 308 309 309 309 310 310 310 311 311 311 311 310 310 310 310 310 309 309 308 307 306 305 305 304 303 303 302 302
274 272 270 268 268 268 267 267 268 268 268 269 270 273 277 279 282 284 286 287 288 289 290 292 294 295 297 299 301 302 304 305 306 307 308 308 308 308 308 309 309 309 309 309 309 309 309 309 309 309 308 308 307 306 305 305 305 305 304 304 303 303 302
Height
5810 5811 5811 5812 5813 5814 5815 5816 5817 5817 5818 5818 5819 5819 5819 5820 5820 5819 5819 5819 5818 5818 5817 5816 5815 5814 5813 5813 5812 5811 5810 5808 5807 5806 5804 5802 5801 5799 5797 5795 5793 5790 5788 5786 5784 5782 5781 5781 5779 5776 5773 5772 5771 5770 5768 5767 5765 5763 5762 5762 5762 5763 5764
5808 5808 5808 5810 5812 5813 5814 5814 5815 5816 5816 5817 5817 5817 5818 5818 5818 5818 5817 5817 5816 5816 5815 5814 5813 5812 5811 5810 5809 5808 5807 5806 5804 5803 5802 5800 5798 5797 5794 5792 5790 5788 5785 5783 5781 5778 5777 5777 5776 5774 5771 5768 5768 5767 5764 5763 5762 5760 5759 5758 5758 5758 5759
5806 5807 5806 5808 5810 5811 5812 5812 5813 5814 5814 5815 5815 5815 5816 5816 5816 5816 5815 5815 5815 5814 5813 5812 5811 5810 5809 5808 5807 5806 5805 5804 5802 5801 5799 5798 5796 5794 5792 5790 5788 5785 5782 5780 5777 5776 5774 5773 5772 5771 5768 5765 5765 5763 5760 5758 5758 5757 5755 5754 5754 5754 5754
5803 5805 5804 5805 5808 5809 5810 5811 5811 5812 5813 5813 5814 5814 5814 5814 5814 5814 5813 5813 5812 5812 5811 5810 5809 5808 5807 5806 5805 5804 5803 5801 5800 5799 5797 5796 5794 5792 5790 5788 5785 5782 5780 5777 5776 5774 5772 5771 5770 5768 5765 5762 5762 5760 5757 5755 5754 5753 5752 5751 5750 5750 5750
5801 5802 5802 5804 5806 5807 5808 5809 5810 5810 5811 5812 5812 5812 5812 5812 5812 5812 5812 5811 5810 5809 5809 5808 5807 5806 5805 5804 5803 5802 5800 5799 5798 5796 5795 5793 5791 5789 5788 5785 5783 5780 5778 5776 5775 5773 5771 5769 5767 5765 5762 5760 5759 5757 5754 5752 5751 5749 5747 5747 5746 5746 5746
5799 5800 5801 5802 5804 5805 5805 5807 5808 5808 5809 5810 5810 5810 5810 5810 5810 5810 5810 5809 5808 5807 5807 5806 5804 5803 5802 5801 5800 5799 5798 5797 5795 5794 5792 5791 5789 5787 5785 5782 5781 5779 5776 5774 5773 5771 5770 5767 5764 5762 5760 5758 5757 5755 5752 5749 5747 5745 5743 5742 5742 5742 5742
5798 5798 5799 5800 5802 5803 5804 5805 5806 5806 5807 5808 5808 5808 5808 5808 5808 5808 5807 5807 5806 5805 5805 5804 5802 5801 5800 5799 5798 5797 5796 5794 5793 5791 5790 5788 5786 5784 5781 5780 5779 5777 5775 5773 5770 5768 5767 5764 5761 5759 5758 5756 5754 5753 5750 5747 5745 5743 5741 5739 5739 5739 5739
5797 5797 5797 5799 5801 5802 5802 5803 5804 5805 5805 5805 5806 5806 5806 5806 5806 5806 5805 5804 5804 5803 5802 5802 5800 5799 5798 5797 5796 5795 5793 5792 5790 5788 5787 5785 5783 5781 5779 5777 5776 5775 5773 5770 5768 5765 5763 5761 5759 5757 5755 5754 5752 5750 5747 5745 5742 5741 5739 5737 5736 5736 5736
5796 5797 5797 5798 5799 5800 5801 5801 5802 5803 5803 5803 5804 5804 5804 5804 5804 5803 5803 5802 5802 5801 5800 5799 5798 5797 5796 5795 5793 5792 5791 5789 5787 5785 5784 5782 5780 5778 5776 5775 5774 5772 5770 5768 5766 5764 5762 5759 5757 5755 5752 5750 5749 5747 5746 5743 5740 5738 5736 5735 5735 5734 5734
5795 5795 5796 5797 5798 5798 5799 5799 5800 5801 5801 5801 5801 5801 5801 5801 5801 5801 5801 5800 5799 5799 5798 5797 5796 5794 5793 5792 5791 5789 5788 5786 5784 5783 5781 5780 5778 5776 5773 5772 5771 5769 5767 5765 5764 5762 5760 5758 5755 5752 5749 5747 5745 5744 5743 5741 5738 5736 5734 5733 5733 5733 5732
5792 5793 5794 5795 5796 5796 5797 5797 5798 5799 5799 5799 5799 5799 5799 5799 5799 5798 5798 5797 5797 5796 5795 5794 5793 5792 5790 5789 5788 5786 5785 5783 5782 5780 5778 5777 5775 5773 5771 5769 5768 5766 5764 5763 5761 5759 5758 5755 5753 5750 5747 5745 5744 5742 5740 5738 5735 5733 5732 5732 5731 5731 5730
5790 5790 5792 5793 5794 5795 5795 5796 5796 5797 5797 5797 5797 5797 5797 5797 5796 5796 5795 5795 5794 5793 5792 5791 5790 5789 5787 5786 5784 5783 5782 5780 5779 5777 5775 5774 5772 5770 5768 5766 5765 5763 5762 5760 5758 5757 5755 5753 5751 5748 5746 5744 5742 5740 5738 5736 5734 5731 5730 5730 5729 5728 5728
5787 5788 5790 5791 5792 5793 5793 5794 5795 5795 5795 5795 5795 5795 5795 5794 5794 5793 5793 5792 5791 5790 5789 5788 5787 5786 5784 5783 5782 5780 5779 5777 5776 5775 5773 5771 5770 5768 5766 5764 5762 5761 5759 5757 5755 5754 5752 5750 5748 5746 5744 5742 5740 5738 5736 5734 5732 5730 5727 5727 5726 5725 5724
5784 5786 5788 5789 5790 5791 5792 5793 5793 5793 5794 5793 5793 5793 5792 5792 5791 5791 5790 5789 5788 5788 5787 5785 5784 5783 5782 5780 5779 5778 5776 5774 5773 5772 5770 5769 5767 5765 5763 5761 5760 5758 5756 5755 5753 5751 5750 5748 5746 5744 5742 5740 5738 5736 5734 5731 5730 5728 5726 5724 5723 5722 5721
5783 5784 5786 5787 5788 5789 5790 5791 5791 5792 5792 5791 5791 5791 5790 5790 5789 5788 5788 5787 5786 5785 5784 5783 5781 5780 5779 5778 5776 5775 5773 5772 5770 5769 5767 5766 5764 5762 5761 5759 5757 5755 5753 5752 5750 5748 5747 5745 5744 5742 5740 5738 5736 5733 5731 5729 5727 5726 5723 5721 5720 5719 5718
5781 5782 5784 5785 5786 5787 5788 5788 5789 5789 5789 5789 5789 5788 5788 5787 5786 5786 5785 5784 5783 5783 5781 5780 5779 5778 5776 5775 5773 5772 5770 5769 5768 5766 5765 5763 5761 5760 5758 5756 5754 5753 5751 5749 5747 5745 5744 5742 5741 5740 5738 5736 5734 5731 5729 5727 5725 5723 5721 5719 5717 5716 5715
5780 5781 5782 5783 5784 5785 5785 5786 5787 5787 5787 5787 5786 5786 5785 5784 5784 5783 5782 5781 5781 5780 5779 5778 5776 5775 5774 5772 5771 5769 5768 5766 5765 5763 5762 5760 5758 5757 5755 5753 5751 5750 5748 5746 5745 5743 5741 5739 5738 5737 5736 5734 5732 5730 5728 5725 5723 5721 5719 5717 5715 5714 5713
5778 5779 5780 5781 5782 5783 5783 5784 5784 5785 5784 5784 5784 5783 5782 5782 5781 5780 5779 5779 5778 5777 5776 5775 5773 5772 5771 5769 5768 5766 5765 5763 5762 5761 5759 5758 5756 5754 5752 5750 5749 5747 5745 5743 5742 5740 5738 5737 5735 5734 5733 5731 5729 5728 5726 5724 5722 5720 5718 5716 5714 5713 5711
5777 5778 5779 5779 5780 5780 5781 5782 5782 5782 5782 5781 5781 5780 5780 5779 5778 5777 5777 5776 5775 5774 5773 5772 5770 5769 5768 5766 5765 5763 5762 5760 5759 5757 5756 5755 5753 5751 5749 5748 5746 5744 5742 5741 5739 5738 5736 5734 5733 5731 5730 5729 5727 5725 5724 5722 5720 5718 5716 5714 5712 5711 5709
5775 5776 5776 5777 5777 5778 5779 5779 5780 5779 5779 5779 5778 5778 5777 5776 5775 5775 5774 5773 5772 5771 5770 5769 5768 5766 5765 5763 5762 5760 5759 5757 5756 5754 5753 5751 5750 5748 5746 5745 5743 5741 5740 5738 5736 5735 5733 5732 5730 5729 5727 5726 5725 5723 5721 5720 5718 5716 5714 5712 5710 5708 5707
5773 5774 5774 5775 5775 5776 5777 5777 5777 5777 5777 5776 5775 5775 5774 5774 5773 5772 5771 5770 5769 5768 5767 5766 5765 5763 5762 5760 5759 5757 5756 5754 5753 5751 5750 5748 5747 5745 5743 5742 5740 5738 5737 5735 5734 5732 5730 5729 5727 5726 5725 5723 5722 5721 5719 5718 5716 5714 5712 5710 5708 5706 5705
5771 5772 5773 5773 5773 5774 5774 5774 5774 5774 5774 5773 5773 5772 5772 5771 5770 5769 5768 5767 5766 5765 5764 5763 5762 5760 5759 5757 5756 5754 5753 5751 5750 5748 5747 5745 5744 5742 5740 5739 5737 5736 5734 5733 5731 5729 5728 5726 5725 5723 5722 5721 5720 5719 5717 5715 5714 5712 5710 5708 5706 5705 5703
5770 5770 5771 5771 5772 5772 5772 5772 5772 5771 5771 5771 5770 5770 5769 5768 5767 5766 5765 5764 5763 5762 5761 5760 5759 5757 5756 5754 5753 5751 5750 5748 5747 5745 5744 5742 5741 5739 5738 5736 5734 5733 5732 5730 5728 5727 5725 5724 5722 5721 5719 5718 5717 5716 5715 5713 5712 5710 5708 5706 5704 5703 5701
5767 5768 5769 5769 5770 5770 5769 5769 5769 5769 5769 5768 5768 5767 5766 5765 5764 5763 5762 5761 5760 5759 5758 5757 5756 5754 5753 5751 5750 5748 5747 5745 5744 5742 5741 5739 5738 5736 5735 5733 5732 5730 5729 5727 5726 5724 5722 5721 5720 5718 5717 5715 5714 5713 5712 5711 5709 5708 5706 5705 5703 5701 5699
5765 5766 5767 5767 5767 5767 5767 5767 5766 5766 5766 5765 5765 5764 5763 5762 5761 5760 5759 5758 5757 5756 5755 5754 5753 5751 5750 5749 5747 5745 5744 5742 5740 5739 5737 5736 5734 5733 5732 5730 5729 5727 5726 5724 5723 5721 5720 5718 5717 5715 5714 5713 5711 5710 5709 5708 5707 5705 5704 5703 5701 5699 5697
5762 5763 5764 5764 5765 5765 5764 5764 5763 5763 5763 5762 5762 5761 5760 5759 5758 5757 5756 5755 5755 5754 5752 5751 5750 5748 5747 5745 5744 5742 5740 5739 5737 5736 5734 5733 5731 5730 5728 5727 5726 5724 5723 5721 5720 5718 5717 5715 5714 5713 5711 5710 5708 5707 5706 5705 5704 5703 5702 5700 5699 5698 5696
5760 5761 5761 5762 5762 5762 5761 5761 5760 5760 5760 5759 5758 5757 5757 5756 5755 5755 5754 5753 5752 5751 5749 5748 5747 5745 5744 5742 5741 5739 5737 5736 5734 5733 5731 5730 5728 5727 5725 5724 5723 5721 5720 5718 5717 5716 5714 5712 5711 5710 5708 5707 5706 5704 5703 5702 5702 5701 5699 5698 5697 5695 5694
5757 5757 5758 5758 5758 5758 5757 5757 5757 5757 5756 5756 5755 5754 5754 5753 5752 5752 5751 5750 5749 5748 5746 5745 5744 5742 5741 5739 5738 5736 5735 5733 5731 5730 5728 5727 5725 5724 5723 5721 5720 5719 5717 5716 5714 5713 5711 5709 5708 5707 5705 5704 5703 5702 5701 5699 5698 5698 5697 5695 5694 5693 5692
5754 5754 5754 5754 5754 5754 5754 5754 5754 5753 5753 5752 5752 5751 5751 5750 5749 5749 5748 5747 5746 5744 5743 5742 5741 5739 5738 5737 5735 5734 5732 5731 5729 5727 5726 5724 5723 5721 5720 5719 5717 5716 5715 5713 5712 5710 5709 5707 5705 5704 5703 5702 5700 5699 5698 5697 5696 5695 5694 5693 5691 5690 5689
5750 5750 5750 5750 5751 5751 5751 5751 5750 5750 5750 5749 5749 5748 5748 5747 5746 5746 5745 5744 5743 5742 5741 5739 5738 5737 5735 5734 5732 5731 5729 5728 5726 5725 5723 5722 5720 5719 5717 5716 5715 5714 5712 5711 5710 5708 5706 5705 5703 5702 5701 5699 5698 5697 5695 5694 5693 5692 5691 5690 5689 5688 5686
5746 5746 5747 5747 5747 5748 5747 5747 5747 5747 5746 5746 5746 5745 5745 5744 5743 5742 5742 5741 5740 5739 5738 5736 5735 5734 5733 5731 5730 5728 5727 5725 5724 5722 5721 5719 5718 5716 5715 5714 5713 5711 5710 5708 5707 5705 5704 5702 5701 5699 5698 5697 5696 5694 5693 5692 5691 5690 5689 5687 5686 5685 5684
5742 5742 5743 5743 5743 5743 5743 5743 5743 5743 5743 5743 5742 5742 5741 5741 5740 5740 5739 5738 5737 5736 5735 5733 5732 5731 5730 5728 5727 5726 5724 5723 5721 5719 5718 5717 5716 5714 5713 5711 5710 5709 5707 5706 5704 5703 5701 5700 5698 5697 5695 5694 5693 5692 5690 5689 5688 5687 5686 5685 5684 5683 5682
5739 5739 5739 5739 5739 5739 5739 5740 5740 5740 5740 5739 5739 5739 5738 5738 5737 5737 5736 5735 5734 5733 5732 5730 5729 5728 5727 5725 5724 5723 5721 5720 5718 5717 5716 5714 5713 5712 5710 5709 5707 5706 5704 5703 5702 5700 5699 5697 5696 5694 5693 5691 5690 5689 5688 5687 5686 5684 5683 5682 5681 5680 5679
5735 5735 5735 5736 5736 5736 5736 5736 5736 5737 5736 5736 5736 5736 5736 5735 5734 5734 5733 5732 5731 5730 5729 5727 5726 5725 5724 5723 5721 5720 5718 5717 5715 5714 5713 5711 5710 5709 5708 5706 5705 5704 5702 5701 5699 5698 5696 5695 5693 5692 5690 5689 5688 5686 5685 5684 5682 5681 5680 5679 5678 5677 5676
5732 5732 5732 5732 5732 5732 5733 5733 5733 5733 5733 5733 5733 5733 5732 5732 5731 5730 5729 5729 5728 5727 5726 5725 5723 5722 5721 5720 5718 5717 5715 5714 5712 5711 5710 5709 5707 5706 5705 5704 5702 5701 5700 5698 5697 5695 5694 5692 5691 5689 5688 5686 5685 5683 5682 5680 5679 5678 5677 5676 5675 5673 5672
5728 5728 5729 5729 5729 5729 5729 5729 5730 5730 5730 5730 5730 5730 5729 5729 5728 5727 5726 5726 5725 5724 5723 5722 5721 5719 5718 5716 5715 5714 5712 5711 5710 5708 5707 5706 5705 5704 5702 5701 5700 5698 5697 5695 5694 5692 5691 5689 5687 5686 5684 5683 5681 5680 5678 5677 5676 5674 5673 5672 5671 5670 5669
5725 5725 5725 5725 5726 5726 5726 5726 5727 5727 5727 5727 5727 5726 5726 5725 5725 5724 5723 5723 5722 5721 5720 5719 5718 5716 5715 5713 5712 5711 5709 5708 5707 5706 5705 5704 5703 5701 5700 5698 5697 5695 5694 5692 5691 5689 5687 5686 5684 5682 5681 5679 5678 5677 5675 5674 5672 5671 5670 5668 5667 5666 5665